Regional & State Weather Roundups


679 
ASUS41 KCLE 232312
RWRCLE
OHIO REGIONAL WEATHER ROUNDUP
NATIONAL WEATHER SERVICE WILMINGTON, OH
600 PM EST THU NOV 23 2017
NOTE: "FAIR" INDICATES FEW OR NO CLOUDS BELOW 12,000 FEET WITH NO
SIGNIFICANT WEATHER AND/OR OBSTRUCTIONS TO VISIBILITY.
OHZ001>008-015>018-024>027-034-035-043-044-240000-
   NORTHWEST OHIO
  
CITY           SKY/WX    TMP DP  RH WIND       PRES   REMARKS
DEFIANCE       FAIR      36  25  64 SW5       29.96S                  
FINDLAY        FAIR      35  25  66 S8        29.97F WCI  29          
TOLEDO EXPRESS FAIR      38  27  64 SW7       29.96R                  
TOLEDO EXEC    FAIR      37  26  64 SW8       29.98S                  
LIMA           FAIR      36  26  67 S8        29.98S                  
$$
 
OHZ009>014-019>023-028>033-038-089-240000-
   NORTHEAST OHIO
  
CITY           SKY/WX    TMP DP  RH WIND       PRES   REMARKS
CLE-HOPKINS    FAIR      38  24  57 S8        30.00F                  
CLE-LAKEFRONT  FAIR      38  23  55 S12       29.98F                  
CUY CO. ARPT   MOCLDY    39  21  48 SW10      29.98F                  
LORAIN-ELYRIA  FAIR      35  21  56 SW8       29.99S WCI  29          
ASHTABULA      CLOUDY    37  24  59 SW8       29.98F                  
AKRON-CANTON   MOCLDY    36  22  56 SW10      29.99S                  
WOOSTER        MOCLDY    35  23  61 SW7       30.00S WCI  29          
MANSFIELD      FAIR      35  24  64 S12       29.98F WCI  27          
YOUNGSTOWN     CLOUDY    37  22  54 SW6       29.99S                  
$$
 
OHZ042-051>053-060>062-070>072-077>081-240000-
  SOUTHWEST OHIO
  
CITY           SKY/WX    TMP DP  RH WIND       PRES   REMARKS
CINC-COVINGTON FAIR      41  24  51 S5        30.02S                  
CINC-LUNKEN    FAIR      38  27  64 CALM      30.04F                  
HAMILTON       FAIR      35  27  72 CALM      30.04S                  
DAYTON         FAIR      36  25  64 S6        30.01F                  
WRIGHT-PAT AFB FAIR      36  22  56 S7        30.01S                  
DAYTON GENERAL FAIR      38  23  55 S3        30.01S                  
WILMINGTON     FAIR      35  27  72 S3        30.02F                  
$$
OHZ036-037-039>041-045>050-054>059-063>069-073>076-082>088-240000-
  CENTRAL AND SOUTHEAST OHIO
  
CITY           SKY/WX    TMP DP  RH WIND       PRES   REMARKS
COLUMBUS       FAIR      38  25  59 SE3       30.03S                  
OSU AIRPORT    FAIR      37  27  67 S5        30.02S                  
BOLTON FIELD   CLEAR     36  25  64 S5        30.03S                  
RICKENBACK AFB MOCLDY    36  26  66 CALM      30.03S                  
NEWARK         FAIR      37  23  56 W3        30.03S                  
MARION         FAIR      35  25  66 S9        30.00F WCI  28          
LANCASTER      CLOUDY    38  26  62 S3        30.03F                  
ZANESVILLE     CLOUDY    39  22  50 CALM      30.03S                  
NEW PHILLY     MOCLDY    37  23  56 CALM      30.03S                  
$$